owner,sensor,date,latitude,longitude,vertical_datum,wind_speed,wind_to_direction,wind_speed_of_gust,qcFlag 
COMPS,ioos:station:USF.COMPS:ARP:1,2011-07-01T00:00:00Z,28.4330,-82.6670,10.0,1.0,180.0,,'1111122,1111122,1111122' 
COMPS,ioos:station:USF.COMPS:ARP:1,2011-07-01T01:00:00Z,28.4330,-82.6670,10.0,1.5,180.0,,'1111122,1111122,1111122' 
COMPS,ioos:station:USF.COMPS:ARP:1,2011-07-01T02:00:00Z,28.4330,-82.6670,10.0,2.1,180.0,,'1111122,1111122,1111122' 
COMPS,ioos:station:USF.COMPS:ARP:1,2011-07-01T03:00:00Z,28.4330,-82.6670,10.0,1.5,170.0,,'1111122,1111122,1111122' 
COMPS,ioos:station:USF.COMPS:ARP:1,2011-07-01T04:00:00Z,28.4330,-82.6670,10.0,1.5,180.0,,'1111122,1111122,1111122' 
COMPS,ioos:station:USF.COMPS:ARP:1,2011-07-01T05:00:00Z,28.4330,-82.6670,10.0,1.0,190.0,,'1111122,1111122,1111122' 
COMPS,ioos:station:USF.COMPS:ARP:1,2011-07-01T06:00:00Z,28.4330,-82.6670,10.0,1.0,160.0,,'1111122,1111122,1111122' 
COMPS,ioos:station:USF.COMPS:ARP:1,2011-07-01T07:00:00Z,28.4330,-82.6670,10.0,1.0,170.0,,'1111122,1111122,1111122' 
COMPS,ioos:station:USF.COMPS:ARP:1,2011-07-01T08:00:00Z,28.4330,-82.6670,10.0,0.5,120.0,,'1111122,1111122,1111122' 
COMPS,ioos:station:USF.COMPS:ARP:1,2011-07-01T09:00:00Z,28.4330,-82.6670,10.0,1.0,110.0,,'1111122,1111122,1111122' 
COMPS,ioos:station:USF.COMPS:ARP:1,2011-07-01T10:00:00Z,28.4330,-82.6670,10.0,1.0,140.0,,'1111122,1111122,1111122' 
COMPS,ioos:station:USF.COMPS:ARP:1,2011-07-01T11:00:00Z,28.4330,-82.6670,10.0,1.5,120.0,,'1111122,1111122,1111122' 
COMPS,ioos:station:USF.COMPS:ARP:1,2011-07-01T12:00:00Z,28.4330,-82.6670,10.0,1.5,140.0,,'1111122,1111122,1111122' 
COMPS,ioos:station:USF.COMPS:ARP:1,2011-07-01T13:00:00Z,28.4330,-82.6670,10.0,1.5,180.0,,'1111122,1111122,1111122' 
COMPS,ioos:station:USF.COMPS:ARP:1,2011-07-01T14:00:00Z,28.4330,-82.6670,10.0,1.5,170.0,,'1111122,1111122,1111122' 
COMPS,ioos:station:USF.COMPS:ARP:1,2011-07-01T16:00:00Z,28.4330,-82.6670,10.0,1.0,240.0,,'1111122,1111122,1111122' 
COMPS,ioos:station:USF.COMPS:ARP:1,2011-07-01T17:00:00Z,28.4330,-82.6670,10.0,1.5,160.0,,'1111122,1111122,1111122' 
COMPS,ioos:station:USF.COMPS:ARP:1,2011-07-01T18:00:00Z,28.4330,-82.6670,10.0,1.5,160.0,,'1111122,1111122,1111122' 
COMPS,ioos:station:USF.COMPS:ARP:1,2011-07-01T19:00:00Z,28.4330,-82.6670,10.0,3.6,290.0,,'1111122,1111122,1111122' 
COMPS,ioos:station:USF.COMPS:ARP:1,2011-07-01T20:00:00Z,28.4330,-82.6670,10.0,3.6,300.0,,'1111122,1111122,1111122' 
COMPS,ioos:station:USF.COMPS:ARP:1,2011-07-01T21:00:00Z,28.4330,-82.6670,10.0,3.1,300.0,,'1111122,1111122,1111122' 
COMPS,ioos:station:USF.COMPS:ARP:1,2011-07-01T23:00:00Z,28.4330,-82.6670,10.0,1.0,150.0,,'1111122,1111122,1111122' 
COMPS,ioos:station:USF.COMPS:ARP:1,2011-07-02T00:00:00Z,28.4330,-82.6670,10.0,1.5,110.0,,'1111122,1111122,1111122' 
COMPS,ioos:station:USF.COMPS:ARP:1,2011-07-02T01:00:00Z,28.4330,-82.6670,10.0,2.1,110.0,,'1111122,1111122,1111122' 
COMPS,ioos:station:USF.COMPS:ARP:1,2011-07-02T03:00:00Z,28.4330,-82.6670,10.0,0.5,140.0,,'1111122,1111122,1111122' 
COMPS,ioos:station:USF.COMPS:ARP:1,2011-07-02T05:00:00Z,28.4330,-82.6670,10.0,0.5,120.0,,'1111122,1111122,1111122' 
COMPS,ioos:station:USF.COMPS:ARP:1,2011-07-02T07:00:00Z,28.4330,-82.6670,10.0,2.1,100.0,,'1111122,1111122,1111122' 
COMPS,ioos:station:USF.COMPS:ARP:1,2011-07-02T08:00:00Z,28.4330,-82.6670,10.0,2.1,120.0,,'1111122,1111122,1111122' 
COMPS,ioos:station:USF.COMPS:ARP:1,2011-07-02T09:00:00Z,28.4330,-82.6670,10.0,1.5,100.0,,'1111122,1111122,1111122' 
COMPS,ioos:station:USF.COMPS:ARP:1,2011-07-02T10:00:00Z,28.4330,-82.6670,10.0,1.5,110.0,,'1111122,1111122,1111122' 
COMPS,ioos:station:USF.COMPS:ARP:1,2011-07-02T11:00:00Z,28.4330,-82.6670,10.0,1.5,110.0,,'1111122,1111122,1111122' 
COMPS,ioos:station:USF.COMPS:ARP:1,2011-07-02T12:00:00Z,28.4330,-82.6670,10.0,2.1,110.0,,'1111122,1111122,1111122' 
COMPS,ioos:station:USF.COMPS:ARP:1,2011-07-02T13:00:00Z,28.4330,-82.6670,10.0,3.1,100.0,,'1111122,1111122,1111122' 
COMPS,ioos:station:USF.COMPS:ARP:1,2011-07-02T15:00:00Z,28.4330,-82.6670,10.0,3.6,110.0,,'1111122,1111122,1111122' 
COMPS,ioos:station:USF.COMPS:ARP:1,2011-07-02T17:00:00Z,28.4330,-82.6670,10.0,3.6,90.0,,'1111122,1111122,1111122' 
COMPS,ioos:station:USF.COMPS:ARP:1,2011-07-02T18:00:00Z,28.4330,-82.6670,10.0,4.1,110.0,,'1111122,1111122,1111122' 
COMPS,ioos:station:USF.COMPS:ARP:1,2011-07-02T20:00:00Z,28.4330,-82.6670,10.0,4.1,100.0,,'1111122,1111122,1111122' 
COMPS,ioos:station:USF.COMPS:ARP:1,2011-07-02T21:00:00Z,28.4330,-82.6670,10.0,3.1,90.0,,'1111122,1111122,1111122' 
COMPS,ioos:station:USF.COMPS:ARP:1,2011-07-02T22:00:00Z,28.4330,-82.6670,10.0,2.6,100.0,,'1111122,1111122,1111122' 
COMPS,ioos:station:USF.COMPS:ARP:1,2011-07-02T23:00:00Z,28.4330,-82.6670,10.0,2.1,100.0,,'1111122,1111122,1111122' 
COMPS,ioos:station:USF.COMPS:ARP:1,2011-07-03T00:00:00Z,28.4330,-82.6670,10.0,0.5,140.0,,'1111122,1111122,1111122' 
COMPS,ioos:station:USF.COMPS:ARP:1,2011-07-03T01:00:00Z,28.4330,-82.6670,10.0,1.5,120.0,,'1111122,1111122,1111122' 
COMPS,ioos:station:USF.COMPS:ARP:1,2011-07-03T03:00:00Z,28.4330,-82.6670,10.0,1.5,130.0,,'1111122,1111122,1111122' 
COMPS,ioos:station:USF.COMPS:ARP:1,2011-07-03T05:00:00Z,28.4330,-82.6670,10.0,0.5,110.0,,'1111122,1111122,1111122' 
COMPS,ioos:station:USF.COMPS:ARP:1,2011-07-03T06:00:00Z,28.4330,-82.6670,10.0,1.5,120.0,,'1111122,1111122,1111122' 
COMPS,ioos:station:USF.COMPS:ARP:1,2011-07-03T07:00:00Z,28.4330,-82.6670,10.0,1.0,100.0,,'1111122,1111122,1111122' 
COMPS,ioos:station:USF.COMPS:ARP:1,2011-07-03T08:00:00Z,28.4330,-82.6670,10.0,2.1,90.0,,'1111122,1111122,1111122' 
COMPS,ioos:station:USF.COMPS:ARP:1,2011-07-03T09:00:00Z,28.4330,-82.6670,10.0,2.1,90.0,,'1111122,1111122,1111122' 
COMPS,ioos:station:USF.COMPS:ARP:1,2011-07-03T10:00:00Z,28.4330,-82.6670,10.0,2.6,90.0,,'1111122,1111122,1111122' 
COMPS,ioos:station:USF.COMPS:ARP:1,2011-07-03T12:00:00Z,28.4330,-82.6670,10.0,2.6,110.0,,'1111122,1111122,1111122' 
COMPS,ioos:station:USF.COMPS:ARP:1,2011-07-03T13:00:00Z,28.4330,-82.6670,10.0,3.1,100.0,,'1111122,1111122,1111122' 
COMPS,ioos:station:USF.COMPS:ARP:1,2011-07-03T14:00:00Z,28.4330,-82.6670,10.0,2.6,110.0,,'1111122,1111122,1111122' 
COMPS,ioos:station:USF.COMPS:ARP:1,2011-07-03T15:00:00Z,28.4330,-82.6670,10.0,3.6,80.0,,'1111122,1111122,1111122' 
COMPS,ioos:station:USF.COMPS:ARP:1,2011-07-03T18:00:00Z,28.4330,-82.6670,10.0,3.1,320.0,,'1111122,1111122,1111122' 
COMPS,ioos:station:USF.COMPS:ARP:1,2011-07-03T20:00:00Z,28.4330,-82.6670,10.0,2.6,330.0,,'1111122,1111122,1111122' 
COMPS,ioos:station:USF.COMPS:ARP:1,2011-07-03T21:00:00Z,28.4330,-82.6670,10.0,2.1,350.0,,'1111122,1111122,1111122' 
COMPS,ioos:station:USF.COMPS:ARP:1,2011-07-03T22:00:00Z,28.4330,-82.6670,10.0,1.5,350.0,,'1111122,1111122,1111122' 
COMPS,ioos:station:USF.COMPS:ARP:1,2011-07-04T00:00:00Z,28.4330,-82.6670,10.0,1.0,160.0,,'1111122,1111122,1111122' 
COMPS,ioos:station:USF.COMPS:ARP:1,2011-07-04T02:00:00Z,28.4330,-82.6670,10.0,2.1,130.0,,'1111122,1111122,1111122' 
COMPS,ioos:station:USF.COMPS:ARP:1,2011-07-04T03:00:00Z,28.4330,-82.6670,10.0,1.5,140.0,,'1111122,1111122,1111122' 
COMPS,ioos:station:USF.COMPS:ARP:1,2011-07-04T04:00:00Z,28.4330,-82.6670,10.0,1.5,150.0,,'1111122,1111122,1111122' 
COMPS,ioos:station:USF.COMPS:ARP:1,2011-07-04T05:00:00Z,28.4330,-82.6670,10.0,0.5,140.0,,'1111122,1111122,1111122' 
COMPS,ioos:station:USF.COMPS:ARP:1,2011-07-04T06:00:00Z,28.4330,-82.6670,10.0,1.0,120.0,,'1111122,1111122,1111122' 
COMPS,ioos:station:USF.COMPS:ARP:1,2011-07-04T07:00:00Z,28.4330,-82.6670,10.0,1.5,110.0,,'1111122,1111122,1111122' 
COMPS,ioos:station:USF.COMPS:ARP:1,2011-07-04T09:00:00Z,28.4330,-82.6670,10.0,1.5,110.0,,'1111122,1111122,1111122' 
COMPS,ioos:station:USF.COMPS:ARP:1,2011-07-04T10:00:00Z,28.4330,-82.6670,10.0,1.5,130.0,,'1111122,1111122,1111122' 
COMPS,ioos:station:USF.COMPS:ARP:1,2011-07-04T11:00:00Z,28.4330,-82.6670,10.0,2.1,120.0,,'1111122,1111122,1111122' 
COMPS,ioos:station:USF.COMPS:ARP:1,2011-07-04T12:00:00Z,28.4330,-82.6670,10.0,2.1,120.0,,'1111122,1111122,1111122' 
COMPS,ioos:station:USF.COMPS:ARP:1,2011-07-04T15:00:00Z,28.4330,-82.6670,10.0,1.5,160.0,,'1111122,1111122,1111122' 
COMPS,ioos:station:USF.COMPS:ARP:1,2011-07-04T16:00:00Z,28.4330,-82.6670,10.0,0.5,50.0,,'1111122,1111122,1111122' 
COMPS,ioos:station:USF.COMPS:ARP:1,2011-07-04T17:00:00Z,28.4330,-82.6670,10.0,3.6,310.0,,'1111122,1111122,1111122' 
COMPS,ioos:station:USF.COMPS:ARP:1,2011-07-04T18:00:00Z,28.4330,-82.6670,10.0,4.6,310.0,,'1111122,1111122,1111122' 
COMPS,ioos:station:USF.COMPS:ARP:1,2011-07-04T20:00:00Z,28.4330,-82.6670,10.0,4.1,320.0,,'1111122,1111122,1111122' 
COMPS,ioos:station:USF.COMPS:ARP:1,2011-07-04T22:00:00Z,28.4330,-82.6670,10.0,4.1,310.0,,'1111122,1111122,1111122' 
COMPS,ioos:station:USF.COMPS:ARP:1,2011-07-05T00:00:00Z,28.4330,-82.6670,10.0,2.6,300.0,,'1111122,1111122,1111122' 
COMPS,ioos:station:USF.COMPS:ARP:1,2011-07-05T01:00:00Z,28.4330,-82.6670,10.0,2.6,130.0,,'1111122,1111122,1111122' 
COMPS,ioos:station:USF.COMPS:ARP:1,2011-07-05T02:00:00Z,28.4330,-82.6670,10.0,1.0,180.0,,'1111122,1111122,1111122' 
COMPS,ioos:station:USF.COMPS:ARP:1,2011-07-05T04:00:00Z,28.4330,-82.6670,10.0,1.0,170.0,,'1111122,1111122,1111122' 
COMPS,ioos:station:USF.COMPS:ARP:1,2011-07-05T05:00:00Z,28.4330,-82.6670,10.0,1.0,120.0,,'1111122,1111122,1111122' 
COMPS,ioos:station:USF.COMPS:ARP:1,2011-07-05T07:00:00Z,28.4330,-82.6670,10.0,1.5,120.0,,'1111122,1111122,1111122' 
COMPS,ioos:station:USF.COMPS:ARP:1,2011-07-05T08:00:00Z,28.4330,-82.6670,10.0,1.0,140.0,,'1111122,1111122,1111122' 
COMPS,ioos:station:USF.COMPS:ARP:1,2011-07-05T09:00:00Z,28.4330,-82.6670,10.0,1.5,120.0,,'1111122,1111122,1111122' 
COMPS,ioos:station:USF.COMPS:ARP:1,2011-07-05T10:00:00Z,28.4330,-82.6670,10.0,2.1,120.0,,'1111122,1111122,1111122' 
COMPS,ioos:station:USF.COMPS:ARP:1,2011-07-05T12:00:00Z,28.4330,-82.6670,10.0,1.0,140.0,,'1111122,1111122,1111122' 
COMPS,ioos:station:USF.COMPS:ARP:1,2011-07-05T14:00:00Z,28.4330,-82.6670,10.0,1.5,130.0,,'1111122,1111122,1111122' 
COMPS,ioos:station:USF.COMPS:ARP:1,2011-07-05T16:00:00Z,28.4330,-82.6670,10.0,3.1,300.0,,'1111122,1111122,1111122' 
COMPS,ioos:station:USF.COMPS:ARP:1,2011-07-05T17:00:00Z,28.4330,-82.6670,10.0,4.1,310.0,,'1111122,1111122,1111122' 
COMPS,ioos:station:USF.COMPS:ARP:1,2011-07-05T18:00:00Z,28.4330,-82.6670,10.0,4.6,320.0,,'1111122,1111122,1111122' 
COMPS,ioos:station:USF.COMPS:ARP:1,2011-07-05T19:00:00Z,28.4330,-82.6670,10.0,2.6,330.0,,'1111122,1111122,1111122' 
COMPS,ioos:station:USF.COMPS:ARP:1,2011-07-05T20:00:00Z,28.4330,-82.6670,10.0,1.5,10.0,,'1111122,1111122,1111122' 
COMPS,ioos:station:USF.COMPS:ARP:1,2011-07-05T21:00:00Z,28.4330,-82.6670,10.0,0.5,310.0,,'1111122,1111122,1111122' 
COMPS,ioos:station:USF.COMPS:ARP:1,2011-07-05T22:00:00Z,28.4330,-82.6670,10.0,1.5,190.0,,'1111122,1111122,1111122' 
COMPS,ioos:station:USF.COMPS:ARP:1,2011-07-05T23:00:00Z,28.4330,-82.6670,10.0,1.0,90.0,,'1111122,1111122,1111122' 
COMPS,ioos:station:USF.COMPS:ARP:1,2011-07-06T00:00:00Z,28.4330,-82.6670,10.0,2.1,320.0,,'1111122,1111122,1111122' 
COMPS,ioos:station:USF.COMPS:ARP:1,2011-07-06T01:00:00Z,28.4330,-82.6670,10.0,1.0,160.0,,'1111122,1111122,1111122' 
COMPS,ioos:station:USF.COMPS:ARP:1,2011-07-06T02:00:00Z,28.4330,-82.6670,10.0,1.5,120.0,,'1111122,1111122,1111122' 
COMPS,ioos:station:USF.COMPS:ARP:1,2011-07-06T03:00:00Z,28.4330,-82.6670,10.0,1.0,120.0,,'1111122,1111122,1111122' 
COMPS,ioos:station:USF.COMPS:ARP:1,2011-07-06T04:00:00Z,28.4330,-82.6670,10.0,1.0,120.0,,'1111122,1111122,1111122' 
COMPS,ioos:station:USF.COMPS:ARP:1,2011-07-06T06:00:00Z,28.4330,-82.6670,10.0,1.5,100.0,,'1111122,1111122,1111122' 
COMPS,ioos:station:USF.COMPS:ARP:1,2011-07-06T07:00:00Z,28.4330,-82.6670,10.0,1.0,80.0,,'1111122,1111122,1111122' 
COMPS,ioos:station:USF.COMPS:ARP:1,2011-07-06T08:00:00Z,28.4330,-82.6670,10.0,1.0,120.0,,'1111122,1111122,1111122' 
COMPS,ioos:station:USF.COMPS:ARP:1,2011-07-06T10:00:00Z,28.4330,-82.6670,10.0,1.0,110.0,,'1111122,1111122,1111122' 
COMPS,ioos:station:USF.COMPS:ARP:1,2011-07-06T11:00:00Z,28.4330,-82.6670,10.0,1.5,110.0,,'1111122,1111122,1111122' 
COMPS,ioos:station:USF.COMPS:ARP:1,2011-07-06T12:00:00Z,28.4330,-82.6670,10.0,1.5,90.0,,'1111122,1111122,1111122' 
COMPS,ioos:station:USF.COMPS:ARP:1,2011-07-06T13:00:00Z,28.4330,-82.6670,10.0,2.1,120.0,,'1111122,1111122,1111122' 
COMPS,ioos:station:USF.COMPS:ARP:1,2011-07-06T14:00:00Z,28.4330,-82.6670,10.0,2.1,130.0,,'1111122,1111122,1111122' 
COMPS,ioos:station:USF.COMPS:ARP:1,2011-07-06T15:00:00Z,28.4330,-82.6670,10.0,2.1,100.0,,'1111122,1111122,1111122' 
COMPS,ioos:station:USF.COMPS:ARP:1,2011-07-06T16:00:00Z,28.4330,-82.6670,10.0,2.6,110.0,,'1111122,1111122,1111122' 
COMPS,ioos:station:USF.COMPS:ARP:1,2011-07-06T17:00:00Z,28.4330,-82.6670,10.0,3.6,320.0,,'1111122,1111122,1111122' 
COMPS,ioos:station:USF.COMPS:ARP:1,2011-07-06T18:00:00Z,28.4330,-82.6670,10.0,2.6,320.0,,'1111122,1111122,1111122' 
COMPS,ioos:station:USF.COMPS:ARP:1,2011-07-06T19:00:00Z,28.4330,-82.6670,10.0,2.1,330.0,,'1111122,1111122,1111122' 
COMPS,ioos:station:USF.COMPS:ARP:1,2011-07-06T20:00:00Z,28.4330,-82.6670,10.0,3.1,330.0,,'1111122,1111122,1111122' 
COMPS,ioos:station:USF.COMPS:ARP:1,2011-07-06T21:00:00Z,28.4330,-82.6670,10.0,1.5,350.0,,'1111122,1111122,1111122' 
COMPS,ioos:station:USF.COMPS:ARP:1,2011-07-06T22:00:00Z,28.4330,-82.6670,10.0,3.1,320.0,,'1111122,1111122,1111122' 
COMPS,ioos:station:USF.COMPS:ARP:1,2011-07-06T23:00:00Z,28.4330,-82.6670,10.0,2.6,320.0,,'1111122,1111122,1111122' 
COMPS,ioos:station:USF.COMPS:ARP:1,2011-07-07T00:00:00Z,28.4330,-82.6670,10.0,1.0,350.0,,'1111122,1111122,1111122' 
COMPS,ioos:station:USF.COMPS:ARP:1,2011-07-07T01:00:00Z,28.4330,-82.6670,10.0,1.0,50.0,,'1111122,1111122,1111122' 
COMPS,ioos:station:USF.COMPS:ARP:1,2011-07-07T02:00:00Z,28.4330,-82.6670,10.0,2.1,100.0,,'1111122,1111122,1111122' 
COMPS,ioos:station:USF.COMPS:ARP:1,2011-07-07T03:00:00Z,28.4330,-82.6670,10.0,1.5,110.0,,'1111122,1111122,1111122' 
COMPS,ioos:station:USF.COMPS:ARP:1,2011-07-07T06:00:00Z,28.4330,-82.6670,10.0,0.5,130.0,,'1111122,1111122,1111122' 
COMPS,ioos:station:USF.COMPS:ARP:1,2011-07-07T07:00:00Z,28.4330,-82.6670,10.0,0.5,130.0,,'1111122,1111122,1111122' 
COMPS,ioos:station:USF.COMPS:ARP:1,2011-07-07T09:00:00Z,28.4330,-82.6670,10.0,1.0,90.0,,'1111122,1111122,1111122' 
COMPS,ioos:station:USF.COMPS:ARP:1,2011-07-07T10:00:00Z,28.4330,-82.6670,10.0,1.5,120.0,,'1111122,1111122,1111122' 
COMPS,ioos:station:USF.COMPS:ARP:1,2011-07-07T11:00:00Z,28.4330,-82.6670,10.0,1.5,130.0,,'1111122,1111122,1111122' 
COMPS,ioos:station:USF.COMPS:ARP:1,2011-07-07T13:00:00Z,28.4330,-82.6670,10.0,1.0,130.0,,'1111122,1111122,1111122' 
COMPS,ioos:station:USF.COMPS:ARP:1,2011-07-07T16:00:00Z,28.4330,-82.6670,10.0,1.0,130.0,,'1111122,1111122,1111122' 
COMPS,ioos:station:USF.COMPS:ARP:1,2011-07-07T17:00:00Z,28.4330,-82.6670,10.0,1.0,230.0,,'1111122,1111122,1111122' 
COMPS,ioos:station:USF.COMPS:ARP:1,2011-07-07T18:00:00Z,28.4330,-82.6670,10.0,3.1,310.0,,'1111122,1111122,1111122' 
COMPS,ioos:station:USF.COMPS:ARP:1,2011-07-07T19:00:00Z,28.4330,-82.6670,10.0,3.6,320.0,,'1111122,1111122,1111122' 
COMPS,ioos:station:USF.COMPS:ARP:1,2011-07-07T20:00:00Z,28.4330,-82.6670,10.0,3.6,320.0,,'1111122,1111122,1111122' 
COMPS,ioos:station:USF.COMPS:ARP:1,2011-07-07T22:00:00Z,28.4330,-82.6670,10.0,6.2,90.0,,'1111122,1111122,1111122' 
COMPS,ioos:station:USF.COMPS:ARP:1,2011-07-08T00:00:00Z,28.4330,-82.6670,10.0,1.5,60.0,,'1111122,1111122,1111122' 
COMPS,ioos:station:USF.COMPS:ARP:1,2011-07-08T01:00:00Z,28.4330,-82.6670,10.0,1.0,100.0,,'1111122,1111122,1111122' 
COMPS,ioos:station:USF.COMPS:ARP:1,2011-07-08T02:00:00Z,28.4330,-82.6670,10.0,2.1,110.0,,'1111122,1111122,1111122' 
COMPS,ioos:station:USF.COMPS:ARP:1,2011-07-08T03:00:00Z,28.4330,-82.6670,10.0,1.5,120.0,,'1111122,1111122,1111122' 
COMPS,ioos:station:USF.COMPS:ARP:1,2011-07-08T04:00:00Z,28.4330,-82.6670,10.0,2.1,120.0,,'1111122,1111122,1111122' 
COMPS,ioos:station:USF.COMPS:ARP:1,2011-07-08T05:00:00Z,28.4330,-82.6670,10.0,1.0,120.0,,'1111122,1111122,1111122' 
COMPS,ioos:station:USF.COMPS:ARP:1,2011-07-08T06:00:00Z,28.4330,-82.6670,10.0,1.5,120.0,,'1111122,1111122,1111122' 
COMPS,ioos:station:USF.COMPS:ARP:1,2011-07-08T07:00:00Z,28.4330,-82.6670,10.0,0.5,150.0,,'1111122,1111122,1111122' 
COMPS,ioos:station:USF.COMPS:ARP:1,2011-07-08T09:00:00Z,28.4330,-82.6670,10.0,1.5,130.0,,'1111122,1111122,1111122' 
COMPS,ioos:station:USF.COMPS:ARP:1,2011-07-08T11:00:00Z,28.4330,-82.6670,10.0,2.1,150.0,,'1111122,1111122,1111122' 
COMPS,ioos:station:USF.COMPS:ARP:1,2011-07-08T13:00:00Z,28.4330,-82.6670,10.0,1.5,140.0,,'1111122,1111122,1111122' 
COMPS,ioos:station:USF.COMPS:ARP:1,2011-07-08T15:00:00Z,28.4330,-82.6670,10.0,1.5,220.0,,'1111122,1111122,1111122' 
COMPS,ioos:station:USF.COMPS:ARP:1,2011-07-08T16:00:00Z,28.4330,-82.6670,10.0,2.1,130.0,,'1111122,1111122,1111122' 
COMPS,ioos:station:USF.COMPS:ARP:1,2011-07-08T17:00:00Z,28.4330,-82.6670,10.0,1.5,200.0,,'1111122,1111122,1111122' 
COMPS,ioos:station:USF.COMPS:ARP:1,2011-07-08T18:00:00Z,28.4330,-82.6670,10.0,1.5,180.0,,'1111122,1111122,1111122' 
COMPS,ioos:station:USF.COMPS:ARP:1,2011-07-08T21:00:00Z,28.4330,-82.6670,10.0,1.5,210.0,,'1111122,1111122,1111122' 
COMPS,ioos:station:USF.COMPS:ARP:1,2011-07-08T22:00:00Z,28.4330,-82.6670,10.0,2.1,210.0,,'1111122,1111122,1111122' 
COMPS,ioos:station:USF.COMPS:ARP:1,2011-07-08T23:00:00Z,28.4330,-82.6670,10.0,1.0,170.0,,'1111122,1111122,1111122' 
COMPS,ioos:station:USF.COMPS:ARP:1,2011-07-09T00:00:00Z,28.4330,-82.6670,10.0,1.5,200.0,,'1111122,1111122,1111122' 
COMPS,ioos:station:USF.COMPS:ARP:1,2011-07-09T01:00:00Z,28.4330,-82.6670,10.0,1.5,180.0,,'1111122,1111122,1111122' 
COMPS,ioos:station:USF.COMPS:ARP:1,2011-07-09T02:00:00Z,28.4330,-82.6670,10.0,1.0,210.0,,'1111122,1111122,1111122' 
COMPS,ioos:station:USF.COMPS:ARP:1,2011-07-09T03:00:00Z,28.4330,-82.6670,10.0,1.0,150.0,,'1111122,1111122,1111122' 
COMPS,ioos:station:USF.COMPS:ARP:1,2011-07-09T04:00:00Z,28.4330,-82.6670,10.0,1.5,190.0,,'1111122,1111122,1111122' 
COMPS,ioos:station:USF.COMPS:ARP:1,2011-07-09T05:00:00Z,28.4330,-82.6670,10.0,0.5,170.0,,'1111122,1111122,1111122' 
COMPS,ioos:station:USF.COMPS:ARP:1,2011-07-09T06:00:00Z,28.4330,-82.6670,10.0,2.1,180.0,,'1111122,1111122,1111122' 
COMPS,ioos:station:USF.COMPS:ARP:1,2011-07-09T09:00:00Z,28.4330,-82.6670,10.0,1.5,140.0,,'1111122,1111122,1111122' 
COMPS,ioos:station:USF.COMPS:ARP:1,2011-07-09T10:00:00Z,28.4330,-82.6670,10.0,1.0,170.0,,'1111122,1111122,1111122' 
COMPS,ioos:station:USF.COMPS:ARP:1,2011-07-09T11:00:00Z,28.4330,-82.6670,10.0,1.5,130.0,,'1111122,1111122,1111122' 
COMPS,ioos:station:USF.COMPS:ARP:1,2011-07-09T12:00:00Z,28.4330,-82.6670,10.0,0.5,170.0,,'1111122,1111122,1111122' 
COMPS,ioos:station:USF.COMPS:ARP:1,2011-07-09T13:00:00Z,28.4330,-82.6670,10.0,1.5,160.0,,'1111122,1111122,1111122' 
COMPS,ioos:station:USF.COMPS:ARP:1,2011-07-09T14:00:00Z,28.4330,-82.6670,10.0,1.5,190.0,,'1111122,1111122,1111122' 
COMPS,ioos:station:USF.COMPS:ARP:1,2011-07-09T15:00:00Z,28.4330,-82.6670,10.0,2.6,250.0,,'1111122,1111122,1111122' 
COMPS,ioos:station:USF.COMPS:ARP:1,2011-07-09T16:00:00Z,28.4330,-82.6670,10.0,3.1,260.0,,'1111122,1111122,1111122' 
COMPS,ioos:station:USF.COMPS:ARP:1,2011-07-09T17:00:00Z,28.4330,-82.6670,10.0,3.6,260.0,,'1111122,1111122,1111122' 
COMPS,ioos:station:USF.COMPS:ARP:1,2011-07-09T18:00:00Z,28.4330,-82.6670,10.0,6.2,270.0,,'1111122,1111122,1111122' 
COMPS,ioos:station:USF.COMPS:ARP:1,2011-07-09T19:00:00Z,28.4330,-82.6670,10.0,5.1,280.0,,'1111122,1111122,1111122' 
COMPS,ioos:station:USF.COMPS:ARP:1,2011-07-09T21:00:00Z,28.4330,-82.6670,10.0,5.7,280.0,,'1111122,1111122,1111122' 
COMPS,ioos:station:USF.COMPS:ARP:1,2011-07-09T22:00:00Z,28.4330,-82.6670,10.0,4.1,280.0,,'1111122,1111122,1111122' 
COMPS,ioos:station:USF.COMPS:ARP:1,2011-07-09T23:00:00Z,28.4330,-82.6670,10.0,4.6,270.0,,'1111122,1111122,1111122' 
COMPS,ioos:station:USF.COMPS:ARP:1,2011-07-10T00:00:00Z,28.4330,-82.6670,10.0,2.6,280.0,,'1111122,1111122,1111122' 
COMPS,ioos:station:USF.COMPS:ARP:1,2011-07-10T01:00:00Z,28.4330,-82.6670,10.0,1.0,260.0,,'1111122,1111122,1111122' 
COMPS,ioos:station:USF.COMPS:ARP:1,2011-07-10T02:00:00Z,28.4330,-82.6670,10.0,1.0,240.0,,'1111122,1111122,1111122' 
COMPS,ioos:station:USF.COMPS:ARP:1,2011-07-10T07:00:00Z,28.4330,-82.6670,10.0,1.0,110.0,,'1111122,1111122,1111122' 
COMPS,ioos:station:USF.COMPS:ARP:1,2011-07-10T08:00:00Z,28.4330,-82.6670,10.0,0.5,160.0,,'1111122,1111122,1111122' 
COMPS,ioos:station:USF.COMPS:ARP:1,2011-07-10T10:00:00Z,28.4330,-82.6670,10.0,1.0,90.0,,'1111122,1111122,1111122' 
COMPS,ioos:station:USF.COMPS:ARP:1,2011-07-10T11:00:00Z,28.4330,-82.6670,10.0,1.0,120.0,,'1111122,1111122,1111122' 
COMPS,ioos:station:USF.COMPS:ARP:1,2011-07-10T12:00:00Z,28.4330,-82.6670,10.0,0.5,110.0,,'1111122,1111122,1111122' 
COMPS,ioos:station:USF.COMPS:ARP:1,2011-07-10T13:00:00Z,28.4330,-82.6670,10.0,0.5,300.0,,'1111122,1111122,1111122' 
COMPS,ioos:station:USF.COMPS:ARP:1,2011-07-10T14:00:00Z,28.4330,-82.6670,10.0,2.1,300.0,,'1111122,1111122,1111122' 
COMPS,ioos:station:USF.COMPS:ARP:1,2011-07-10T15:00:00Z,28.4330,-82.6670,10.0,1.5,310.0,,'1111122,1111122,1111122' 
COMPS,ioos:station:USF.COMPS:ARP:1,2011-07-10T16:00:00Z,28.4330,-82.6670,10.0,2.6,300.0,,'1111122,1111122,1111122' 
COMPS,ioos:station:USF.COMPS:ARP:1,2011-07-10T17:00:00Z,28.4330,-82.6670,10.0,4.1,300.0,,'1111122,1111122,1111122' 
COMPS,ioos:station:USF.COMPS:ARP:1,2011-07-10T18:00:00Z,28.4330,-82.6670,10.0,3.1,290.0,,'1111122,1111122,1111122' 
COMPS,ioos:station:USF.COMPS:ARP:1,2011-07-10T21:00:00Z,28.4330,-82.6670,10.0,3.1,300.0,,'1111122,1111122,1111122' 
COMPS,ioos:station:USF.COMPS:ARP:1,2011-07-10T22:00:00Z,28.4330,-82.6670,10.0,2.6,300.0,,'1111122,1111122,1111122' 
COMPS,ioos:station:USF.COMPS:ARP:1,2011-07-10T23:00:00Z,28.4330,-82.6670,10.0,1.5,320.0,,'1111122,1111122,1111122' 
COMPS,ioos:station:USF.COMPS:ARP:1,2011-07-11T01:00:00Z,28.4330,-82.6670,10.0,1.5,330.0,,'1111122,1111122,1111122' 
COMPS,ioos:station:USF.COMPS:ARP:1,2011-07-11T03:00:00Z,28.4330,-82.6670,10.0,2.1,290.0,,'1111122,1111122,1111122' 
COMPS,ioos:station:USF.COMPS:ARP:1,2011-07-11T04:00:00Z,28.4330,-82.6670,10.0,1.0,50.0,,'1111122,1111122,1111122' 
COMPS,ioos:station:USF.COMPS:ARP:1,2011-07-11T05:00:00Z,28.4330,-82.6670,10.0,0.5,150.0,,'1111122,1111122,1111122' 
COMPS,ioos:station:USF.COMPS:ARP:1,2011-07-11T06:00:00Z,28.4330,-82.6670,10.0,0.5,190.0,,'1111122,1111122,1111122' 
COMPS,ioos:station:USF.COMPS:ARP:1,2011-07-11T07:00:00Z,28.4330,-82.6670,10.0,2.1,130.0,,'1111122,1111122,1111122' 
COMPS,ioos:station:USF.COMPS:ARP:1,2011-07-11T08:00:00Z,28.4330,-82.6670,10.0,1.0,170.0,,'1111122,1111122,1111122' 
COMPS,ioos:station:USF.COMPS:ARP:1,2011-07-11T09:00:00Z,28.4330,-82.6670,10.0,1.0,150.0,,'1111122,1111122,1111122' 
COMPS,ioos:station:USF.COMPS:ARP:1,2011-07-11T10:00:00Z,28.4330,-82.6670,10.0,1.0,150.0,,'1111122,1111122,1111122' 
COMPS,ioos:station:USF.COMPS:ARP:1,2011-07-11T11:00:00Z,28.4330,-82.6670,10.0,1.0,180.0,,'1111122,1111122,1111122' 
COMPS,ioos:station:USF.COMPS:ARP:1,2011-07-11T12:00:00Z,28.4330,-82.6670,10.0,1.0,170.0,,'1111122,1111122,1111122' 
COMPS,ioos:station:USF.COMPS:ARP:1,2011-07-11T13:00:00Z,28.4330,-82.6670,10.0,1.0,150.0,,'1111122,1111122,1111122' 
COMPS,ioos:station:USF.COMPS:ARP:1,2011-07-11T14:00:00Z,28.4330,-82.6670,10.0,0.5,240.0,,'1111122,1111122,1111122' 
COMPS,ioos:station:USF.COMPS:ARP:1,2011-07-11T15:00:00Z,28.4330,-82.6670,10.0,3.6,290.0,,'1111122,1111122,1111122' 
COMPS,ioos:station:USF.COMPS:ARP:1,2011-07-11T17:00:00Z,28.4330,-82.6670,10.0,2.1,360.0,,'1111122,1111122,1111122' 
COMPS,ioos:station:USF.COMPS:ARP:1,2011-07-11T18:00:00Z,28.4330,-82.6670,10.0,2.1,360.0,,'1111122,1111122,1111122' 
COMPS,ioos:station:USF.COMPS:ARP:1,2011-07-11T19:00:00Z,28.4330,-82.6670,10.0,2.1,320.0,,'1111122,1111122,1111122' 
COMPS,ioos:station:USF.COMPS:ARP:1,2011-07-11T21:00:00Z,28.4330,-82.6670,10.0,1.0,360.0,,'1111122,1111122,1111122' 
COMPS,ioos:station:USF.COMPS:ARP:1,2011-07-11T22:00:00Z,28.4330,-82.6670,10.0,3.6,310.0,,'1111122,1111122,1111122' 